Location: Bron Breck
(40.6655°N, 111.8083°W)
Time: 05:59:18
(UTC+00:00)

ISS - Pass Details

Date: 05 March 2021
Orbit: 418 x 422 km, 51.6° (Epoch: 16 April)

Event Time Altitude Azimuth Distance (km) Brightness Sun altitude
Exits shadow 13:10:54 - 317° (NW) 1,953 -0.8 -9.1°
Reaches altitude 10° 13:12:14 10° 328° (NNW) 1,500 -1.3 -8.8°
Maximum altitude 13:14:53 21° 21° (NNE) 998 -1.6 -8.3°
Drops below altitude 10° 13:17:32 10° 73° (ENE) 1,497 0.4 -7.8°
Sets 13:19:58 0° 90° (E) 2,359 2.8 -7.3°
